Location: Unspecified
(0.0000°N, 0.0000°E)
Time: 08:47:36
(UTC+00:00)

X-37B - Pass Details

Date: 26 November 2020
Orbit: 384 x 389 km, 45.0° (Epoch: 12 November)

Event Time Altitude Azimuth Distance (km) Brightness Sun altitude
Exits shadow 04:17:01 15° 195° (SSW) 1,128 3.0 -21.0°
Drops below altitude 10° 04:18:04 10° 178° (S) 1,406 3.7 -20.8°
Sets 04:20:31 0° 160° (SSE) 2,263 5.1 -20.2°
